Theta_e
336 341 343 342 342 342 342 342 343 343 341 338 342 339 339 341 339 340 340 341 340 341 342 342 344 344 342 343 344 342 342 340 343
336 336 338 340 342 341 342 342 343 343 343 339 339 340 338 340 341 340 340 340 340 340 342 343 344 345 343 341 344 344 346 344 345
338 338 338 340 341 342 341 342 343 344 343 342 337 338 340 338 337 339 338 338 339 341 342 343 344 345 345 344 344 344 344 344 344
335 337 339 340 340 341 342 342 342 343 344 343 341 337 337 337 337 336 337 337 338 342 343 342 343 344 344 343 345 346 344 344 344
334 334 336 340 341 342 342 342 342 343 344 344 342 340 336 335 336 336 336 337 337 339 343 343 344 345 345 344 344 344 344 343 343
338 340 339 336 340 341 342 342 343 343 343 344 343 342 340 335 334 335 335 334 336 338 340 340 343 341 345 344 343 344 343 344 345
336 338 341 338 339 341 342 343 343 343 343 344 343 342 342 339 334 333 335 335 334 334 336 335 338 337 336 340 345 344 344 344 344
335 336 339 341 341 341 342 342 343 344 344 344 343 342 342 342 338 333 332 332 333 334 335 334 335 335 335 339 343 345 346 346 346
336 335 335 337 341 342 342 341 342 343 343 343 343 343 342 342 342 340 338 335 332 333 333 333 335 336 337 337 341 341 343 345 345
329 331 333 335 335 338 344 342 342 342 343 343 343 343 342 342 342 343 343 343 343 343 339 338 340 343 344 341 341 343 343 345 346
329 329 327 332 335 334 337 344 346 342 343 342 343 343 343 343 343 343 343 343 344 345 345 345 345 347 345 343 342 344 345 347 347
326 327 327 329 333 333 333 336 342 349 344 343 343 343 343 343 343 344 343 344 344 345 346 347 347 345 345 342 339 340 345 345 346
327 325 326 328 335 333 334 333 336 341 349 349 345 345 345 344 344 343 344 344 345 345 346 348 348 346 343 342 332 335 340 343 344
325 325 325 326 327 329 332 335 333 335 337 338 345 348 347 346 346 346 346 346 346 346 347 348 348 347 346 344 337 334 342 342 346
322 323 324 324 326 327 328 332 334 336 333 334 335 336 345 349 348 348 348 348 348 347 347 348 350 349 350 349 348 347 346 346 345
322 322 322 323 325 328 326 328 331 334 336 337 336 336 336 341 350 348 345 348 348 349 349 350 350 350 349 348 343 341 343 344 343
324 322 323 323 324 326 326 325 328 333 336 337 337 335 335 335 333 333 333 339 346 346 347 349 350 349 348 346 342 340 343 343 339
326 326 323 324 325 325 326 326 325 330 333 335 336 335 336 334 334 333 333 344 345 345 349 350 348 348 343 341 342 340 340 341 340
326 326 327 327 325 325 325 326 325 324 330 334 336 336 336 334 332 332 333 344 345 346 348 348 341 337 340 338 335 330 338 337 338
325 325 326 326 324 323 324 326 326 324 324 331 334 335 335 337 336 333 341 347 348 346 347 343 338 338 338 328 328 336 336 336 334
Wind_Speed
13 30 33 32 30 30 32 30 29 24 23 23 26 25 29 27 25 21 23 23 16 16 16 15 12 10 11 12 11 8 7 8 10
5 14 24 29 31 31 33 34 34 27 25 24 26 27 27 30 28 26 21 23 20 17 18 16 15 14 11 12 12 11 10 9 8
8 9 18 25 30 32 32 34 35 33 23 26 24 26 26 28 30 30 26 23 23 19 18 17 14 16 13 12 13 14 13 12 10
12 12 16 21 26 29 31 32 34 35 31 27 27 26 26 26 28 29 27 27 25 21 20 18 18 19 17 16 15 14 14 14 13
18 14 15 20 24 27 30 31 33 34 35 30 27 25 25 26 27 29 28 29 28 24 21 19 14 16 15 15 15 16 15 12 12
26 22 16 15 22 32 30 30 31 32 34 36 25 26 26 27 29 31 30 31 31 29 25 20 21 21 20 20 17 17 17 13 14
26 26 18 7 15 25 31 30 30 31 30 36 33 24 28 28 31 32 29 30 31 30 29 26 23 23 22 21 19 18 18 17 16
31 28 25 17 7 17 25 29 31 32 28 30 36 34 29 29 27 29 30 29 28 27 29 29 27 25 25 24 22 22 20 19 19
28 32 28 21 15 6 15 24 28 29 30 28 33 33 35 31 29 27 28 28 27 25 26 26 24 23 23 24 25 21 20 20 21
26 28 30 24 20 15 9 14 22 26 31 29 32 35 32 32 33 31 31 28 26 24 25 23 22 20 18 18 19 20 23 22 22
23 25 28 27 21 18 12 10 9 21 26 29 29 34 36 30 29 31 29 29 28 24 22 22 22 21 20 21 23 22 23 25 27
26 22 25 24 20 16 16 12 9 9 21 24 27 31 34 35 32 28 30 29 26 22 22 19 21 22 22 23 26 28 28 24 28
29 26 23 21 18 14 14 14 11 7 9 17 25 27 29 30 33 34 32 34 32 29 26 23 23 21 20 19 14 30 19 21 26
33 30 25 21 18 17 18 13 11 7 9 10 12 23 28 28 29 30 31 30 31 31 27 25 23 23 21 21 18 24 24 26 27
35 36 33 26 23 19 18 16 14 14 13 12 12 11 13 25 23 23 27 29 30 30 27 28 25 22 23 21 19 19 20 22 21
38 35 37 29 25 19 17 16 17 17 16 18 13 15 19 20 20 20 18 24 28 27 30 28 25 23 19 16 16 17 19 18 18
36 37 39 34 27 24 18 16 17 16 18 18 17 16 20 22 27 24 20 27 27 29 30 28 24 22 19 18 17 17 19 19 18
34 33 36 37 33 28 25 20 21 20 18 18 21 21 22 22 25 27 26 29 31 32 32 25 21 21 18 18 18 18 17 17 15
33 32 32 33 33 33 29 25 24 23 22 21 22 25 26 26 27 31 33 34 35 34 27 23 18 18 16 14 13 14 14 13 14
31 31 30 30 30 31 31 30 31 26 26 25 25 28 28 24 26 32 33 38 39 36 28 23 18 17 14 13 13 13 14 15 13
Wind_Direction
232 225 227 230 226 222 221 216 217 216 212 203 202 205 209 207 206 205 208 212 211 220 222 216 222 234 235 232 232 234 253 258 255
250 226 226 230 230 229 228 225 219 214 216 212 207 210 209 211 207 210 209 210 223 227 225 229 240 231 234 230 229 238 253 256 259
245 241 224 229 232 231 231 233 227 220 220 221 216 212 214 215 215 216 218 220 222 220 223 228 230 218 226 238 243 248 255 261 268
324 289 244 234 234 232 229 230 231 223 222 224 221 220 218 216 216 215 219 219 220 219 225 236 230 232 239 243 252 250 257 262 260
341 328 290 258 241 233 226 226 230 228 221 225 228 223 224 219 215 216 218 218 216 221 223 232 235 235 238 246 253 251 246 252 253
11 356 330 270 249 236 229 228 230 232 223 222 226 223 225 224 217 213 215 219 220 224 224 231 239 243 248 252 253 247 251 260 269
14 18 5 322 252 242 239 234 235 235 227 226 222 221 226 229 225 216 216 221 221 228 232 237 237 246 257 254 246 252 257 260 262
10 17 23 18 310 254 245 241 240 241 232 228 224 228 226 225 227 224 222 223 225 232 235 238 244 248 251 250 245 247 249 255 261
8 10 9 11 19 306 255 252 244 244 243 232 222 230 232 231 229 228 227 227 227 229 236 238 242 242 244 247 249 250 255 258 259
6 6 8 359 360 1 359 259 254 248 250 244 233 229 233 236 237 235 234 234 234 233 234 237 238 240 240 247 255 260 258 256 257
350 352 354 358 348 353 344 354 278 255 250 250 244 238 233 234 240 241 245 243 239 236 228 228 232 235 240 243 249 255 258 261 255
339 338 343 347 346 343 349 328 334 286 249 254 249 242 239 237 238 245 244 239 236 231 229 227 227 231 235 254 255 268 258 259 253
322 332 341 342 345 338 331 328 308 306 313 255 250 249 245 241 241 242 249 250 242 238 236 232 234 238 240 244 252 246 259 260 256
308 315 326 332 317 329 336 326 305 308 280 281 297 258 247 246 246 248 249 252 250 245 241 243 237 231 235 237 235 258 248 251 254
294 298 306 316 316 312 315 323 311 297 273 268 264 262 268 241 239 244 247 250 248 242 230 237 235 232 232 240 245 245 246 252 254
289 282 286 296 310 304 304 311 310 291 284 268 263 265 258 250 231 239 246 248 243 234 231 222 226 231 232 232 240 249 248 246 249
293 279 277 282 290 291 290 298 291 291 274 270 272 268 259 262 251 241 238 246 237 232 228 225 224 221 222 226 233 239 237 244 243
294 292 283 283 283 283 283 286 291 290 286 272 273 271 274 272 258 246 233 237 229 228 227 224 221 224 226 220 236 242 244 239 240
289 288 293 286 279 280 277 281 285 288 289 285 281 275 270 271 259 237 225 224 224 219 218 213 212 217 221 226 244 225 224 227 235
291 288 287 284 279 276 277 278 285 291 280 283 280 279 272 268 248 231 227 215 213 204 202 203 209 221 227 229 212 215 216 226 239